ROMMA est une association bénévole à but non lucratif. Votre soutien est indispensable : ADHERER à ROMMA ou FAIRE un DON

Pommerol - (26, Drôme)

Baronnies (780 m)   Longitude: 5° 27' 28.8"   Latitude: 44° 26' 23'' N Station partenaire n°78
 

Détail journalier du     <<     >>

Température Precipitation Humidité Pression Vent Dir Rafale Dir. rafale
Heure (°C) (mm) (%) (hPa) (km/h) (km/h)
01:00 11.107910131O15SSO
02:00 11.407910132ONO23O
03:00 11.507910131ONO15ONO
04:00 11.408010121O19O
05:00 11.308010121O16ONO
06:00 11.40791012015ONO
07:00 11.50791012018ONO
08:00 11.308010121ONO13OSO
09:00 11.807810122ONO18OSO
10:00 12.807410123ONO18ONO
11:00 13.007210125NO23ONO
12:00 13.207310126O23NO
13:00 13.007410134ONO23ONO
14:00 13.907210125ONO26NO
15:00 14.107210129NO24NO
16:00 13.807410129ONO29ONO
17:00 13.807210126O34ONO
18:00 13.507310126ONO29ONO
19:00 13.007610127O31NNO
20:00 12.907610123ONO19NO
21:00 12.907410123NO24N
22:00 12.707410122ONO23O
23:00 11.9077101205ONO
minuit 11.1080101202O

Graphique du 10-06-2020

 

Serveur OMMA